Wind_Speed
25 26 28 28 28 30 30 31 31 31 30 29 28 28 29 30 30 28 26 25 24 24 23 23 22 21 19 19 18 18 18 18 20 17 20 28 27 20 16 16 12 13 18 15 14 14 13 16 16 18 15 11 9 8 11 10 8 7 4 5 4 3 4 2 4 6 5 6 3 7 6 8 9 9 9 10 12 12 12 12 9 9 14 19 25 32 31 29
26 28 29 30 30 31 32 33 32 31 30 29 29 31 32 32 31 28 26 25 24 23 23 23 22 21 20 18 17 15 17 18 20 21 30 36 29 24 20 20 21 17 16 17 18 17 15 14 15 16 12 9 9 9 10 9 8 7 5 6 4 3 5 2 2 4 8 9 3 4 4 5 9 9 7 8 11 11 11 12 12 14 18 22 27 32 31 29
27 29 30 31 32 33 33 34 34 32 31 32 33 34 34 33 31 27 25 25 24 24 23 23 23 22 20 17 15 12 14 18 18 23 34 35 29 30 27 22 22 18 17 20 19 19 16 15 16 15 12 9 9 10 11 8 8 7 6 6 4 4 5 5 2 4 12 15 7 2 4 4 4 6 6 6 12 12 9 11 13 16 19 22 24 27 30 28
29 30 31 32 33 34 35 35 35 34 33 34 35 35 34 34 32 27 25 25 25 25 24 23 23 22 19 15 12 9 12 16 12 13 19 23 24 26 29 29 24 18 19 20 19 20 18 17 16 14 12 10 9 11 11 8 7 7 7 7 3 4 3 6 6 7 16 18 5 6 5 5 3 4 6 5 9 8 7 11 12 17 21 23 23 23 26 25
30 31 32 33 35 36 36 37 37 36 35 36 36 35 34 35 31 26 26 26 26 26 25 24 23 21 19 13 7 7 9 8 1 4 4 9 17 19 27 32 29 22 20 21 20 20 20 17 15 14 11 9 10 10 11 11 7 6 9 6 4 6 4 5 7 9 17 17 3 8 2 4 6 5 9 8 6 3 6 13 14 17 22 22 23 22 22 23
32 33 33 35 36 37 37 38 38 37 37 37 37 36 35 34 29 26 27 28 27 27 25 23 21 19 16 9 4 6 9 4 5 10 7 3 6 12 23 29 30 24 21 21 20 20 18 17 15 13 11 10 13 12 11 12 9 8 8 5 7 10 8 2 4 10 18 16 3 7 6 7 7 6 9 10 9 6 6 15 18 18 21 22 23 21 21 22
33 34 35 36 37 38 39 39 39 39 39 38 37 37 36 33 28 27 28 28 28 26 23 20 17 15 10 5 4 7 9 11 11 2 3 3 6 6 12 23 26 22 22 21 20 18 16 17 16 12 12 11 13 14 12 11 12 11 9 8 10 12 12 7 4 7 19 14 4 7 11 10 8 5 7 9 11 12 10 15 20 18 20 22 21 21 21 21
34 36 36 38 38 39 40 40 41 40 39 39 38 37 35 31 27 28 29 28 27 23 19 15 13 11 5 4 6 8 10 20 25 15 8 8 2 5 8 15 21 21 23 23 20 18 16 17 17 13 12 12 12 14 13 12 13 13 12 11 10 10 15 12 11 12 19 13 5 6 7 6 7 7 8 9 11 13 14 16 20 19 20 21 19 20 20 19
36 37 37 38 39 40 41 41 42 41 40 40 38 36 34 31 28 27 28 26 23 19 16 13 11 7 5 5 7 9 12 21 24 18 15 12 9 7 9 13 18 21 22 24 23 20 16 15 17 15 13 13 13 14 15 13 11 13 15 13 12 10 12 15 16 18 17 9 7 8 6 6 7 7 7 11 11 13 16 17 19 20 21 21 19 19 19 20
37 37 38 39 40 41 42 42 42 41 41 39 36 34 33 31 28 27 26 23 18 17 15 11 9 4 8 8 8 9 10 14 15 18 18 13 13 13 12 13 17 21 20 21 23 20 16 14 15 14 12 13 13 14 15 13 10 13 14 13 14 14 11 12 13 14 13 10 10 9 7 7 7 6 5 11 14 14 17 17 18 19 19 20 19 19 19 19
37 37 38 39 40 42 42 43 43 42 41 38 35 33 32 30 28 27 24 19 15 16 14 10 7 7 11 10 9 10 7 8 6 18 19 15 17 17 16 15 17 21 20 19 21 21 19 17 14 11 9 11 13 14 15 14 13 13 12 10 13 15 14 13 11 11 11 10 11 10 8 7 7 7 5 11 15 15 17 17 18 17 17 18 19 19 17 16
38 38 39 40 41 42 43 43 43 42 41 36 33 32 31 28 27 27 22 15 13 15 14 9 7 10 11 10 13 18 14 11 4 12 16 15 18 18 18 17 17 20 20 17 18 22 21 19 17 13 10 10 11 12 11 14 15 13 12 11 12 14 14 15 14 12 11 9 11 11 9 9 10 9 7 12 16 15 17 17 16 16 15 16 16 16 14 15
39 39 39 40 41 42 43 43 43 42 39 34 32 31 30 27 28 26 19 13 12 14 13 7 7 11 10 9 15 26 25 20 13 9 11 13 17 18 18 18 18 19 20 18 17 20 21 20 19 16 13 11 11 10 7 8 12 13 13 11 11 12 12 15 15 15 14 10 11 11 7 8 10 11 9 10 15 16 16 14 13 14 14 13 14 14 14 15
39 39 39 40 40 42 43 42 42 42 37 33 32 31 28 27 28 25 16 12 11 13 10 5 9 10 10 10 16 23 24 22 21 19 14 13 16 19 20 21 20 20 20 20 19 19 20 20 19 15 13 13 12 12 11 8 8 11 12 10 9 9 9 14 16 17 16 12 14 13 7 6 8 12 12 10 14 16 15 14 12 12 13 12 13 14 14 14
40 40 40 40 41 41 43 42 42 39 35 33 32 30 28 27 26 21 13 10 9 10 6 4 10 9 7 12 19 19 18 20 22 23 20 16 17 17 20 22 21 21 20 20 19 18 19 20 17 12 11 14 14 13 12 10 8 9 10 10 10 9 9 13 16 18 16 13 16 15 8 6 9 10 14 13 15 16 15 16 15 14 14 13 13 13 14 13
41 41 40 41 42 42 43 42 41 37 32 33 31 29 28 26 23 17 11 8 8 6 2 6 13 13 7 8 11 10 15 19 20 22 22 21 19 16 18 22 21 22 21 19 19 17 17 16 13 12 12 13 13 12 9 9 9 10 10 10 10 11 10 11 13 17 18 13 15 16 9 6 8 7 13 15 16 15 14 16 15 14 13 13 12 12 12 12
41 41 40 41 42 43 43 42 40 33 31 32 30 31 30 22 18 16 10 8 8 6 8 9 10 12 10 10 9 8 14 20 20 20 22 22 20 17 17 17 17 19 20 19 18 16 14 13 10 10 11 11 11 10 10 10 10 9 10 10 11 14 11 10 11 14 19 16 14 16 11 9 9 7 11 14 16 14 13 15 14 12 11 10 11 12 12 12
41 41 40 41 42 43 43 42 38 30 30 31 29 33 28 15 12 13 7 6 6 7 11 12 10 7 8 11 13 12 12 17 21 20 21 23 20 19 17 14 14 16 16 14 16 15 11 10 10 10 11 11 12 12 12 13 11 10 10 10 11 13 13 13 12 11 17 18 15 15 13 13 12 10 12 13 15 14 16 16 12 10 12 12 11 11 11 12
41 41 40 41 42 42 43 42 35 27 29 29 28 30 19 8 7 7 7 6 5 6 7 6 10 7 7 9 15 16 11 10 19 19 20 23 21 20 17 15 14 16 15 11 14 15 11 9 10 11 12 14 16 16 16 15 14 14 14 12 11 12 12 14 13 10 14 15 15 15 13 14 14 12 13 12 14 13 16 17 9 6 10 13 11 10 11 13
42 42 42 42 43 42 42 41 33 25 28 31 33 26 11 8 6 2 3 8 9 12 16 12 13 15 17 18 12 11 8 7 15 17 21 24 20 18 15 14 14 14 14 13 13 15 11 10 12 14 15 17 20 20 20 18 18 17 15 13 14 13 12 14 14 12 14 12 14 16 15 16 15 13 14 13 13 13 14 17 14 10 10 13 13 13 13 13
41 42 42 43 44 42 40 39 31 23 24 29 30 17 8 12 10 7 11 14 16 16 22 23 20 20 23 23 20 12 7 7 13 16 21 24 20 16 13 14 15 13 14 16 13 12 12 13 16 19 19 19 20 21 21 19 20 19 15 13 14 13 12 14 15 14 16 11 12 16 16 16 16 13 15 16 16 15 15 15 19 19 16 14 16 16 15 12
41 41 42 42 43 42 40 37 27 21 21 22 19 9 10 14 11 13 14 14 19 19 21 25 24 24 24 27 30 24 14 11 15 16 20 24 19 16 14 15 16 13 15 17 12 11 13 15 19 21 19 19 19 19 21 21 20 17 14 13 11 11 11 13 16 15 14 9 10 14 15 15 17 17 15 17 18 16 16 15 17 23 20 16 17 16 15 14
40 41 42 41 43 41 38 34 24 19 18 16 13 11 13 16 15 17 14 11 18 20 18 22 23 22 23 24 27 25 17 14 15 16 21 22 19 17 15 16 17 15 16 17 15 13 12 15 19 20 18 20 21 20 22 20 16 14 14 12 11 12 11 10 14 16 14 11 11 12 12 12 15 17 17 17 17 17 19 18 16 22 21 18 19 16 15 17
42 43 42 42 43 40 36 31 20 15 18 15 12 15 17 19 18 18 13 10 15 17 18 23 21 19 22 21 21 21 16 14 14 16 22 22 18 17 16 16 18 17 16 20 22 18 15 14 16 20 21 22 22 21 21 16 13 15 17 15 13 14 14 11 12 14 14 14 13 12 10 9 11 14 14 14 13 16 19 19 16 18 21 20 19 18 16 18
43 43 43 42 42 40 36 24 14 17 21 15 13 18 20 19 18 18 13 8 10 13 18 20 14 16 24 22 19 18 15 15 16 14 20 23 20 16 14 13 13 16 19 23 23 18 17 15 16 21 22 22 21 19 20 16 11 14 18 19 18 16 16 15 14 12 11 12 14 14 9 7 11 14 14 13 13 13 13 16 18 16 20 22 19 19 18 18
43 42 43 40 38 40 31 13 14 23 20 12 17 21 21 19 18 17 10 7 9 10 11 12 9 13 19 18 15 15 15 15 16 16 18 24 22 15 13 11 9 15 19 19 15 11 13 17 17 19 21 23 22 18 20 19 12 11 15 20 22 20 17 17 16 12 9 9 13 15 11 7 11 14 15 15 14 14 12 15 18 16 20 21 17 18 18 17
43 41 41 38 36 35 21 10 19 22 12 12 20 22 21 19 19 17 8 6 7 3 6 7 6 8 13 16 17 16 11 9 14 20 20 24 24 16 15 14 11 14 14 11 11 10 14 20 20 20 20 20 18 16 18 20 14 10 13 18 21 21 20 18 16 13 10 10 12 16 15 9 9 11 14 17 17 16 14 15 18 19 21 22 18 18 18 18
42 41 39 37 33 26 14 14 19 16 11 17 23 22 21 20 19 13 5 4 3 4 6 3 3 4 7 13 21 18 9 7 14 19 21 25 26 17 17 20 16 16 17 13 12 12 16 21 22 21 19 15 15 16 18 20 16 11 13 15 17 20 21 18 14 12 10 11 10 13 15 10 8 10 13 17 19 17 15 15 16 19 22 21 20 21 21 20
42 40 37 35 30 19 11 14 15 13 17 21 22 22 23 21 15 7 4 6 4 3 2 1 2 4 5 9 19 19 13 9 9 14 20 24 26 19 14 19 19 18 21 19 15 13 14 18 21 20 16 13 15 17 19 19 16 13 15 15 13 16 18 16 14 10 10 11 11 14 15 10 8 9 11 14 16 17 17 17 15 17 22 20 20 22 21 19
42 39 33 31 26 18 15 14 12 15 21 21 22 24 23 16 8 5 6 7 4 6 3 1 3 2 6 10 15 17 17 14 8 12 19 19 24 21 14 15 19 16 17 20 18 17 15 16 17 17 15 13 15 17 19 19 17 14 14 14 11 11 12 12 12 10 10 11 13 17 17 11 8 7 9 11 11 13 14 14 15 17 21 20 19 20 20 18
42 36 28 24 21 16 15 13 13 19 20 21 23 23 17 8 5 7 6 5 6 9 8 6 11 9 5 9 12 15 17 16 13 12 16 16 19 19 14 13 14 13 13 16 17 18 19 16 14 14 16 16 15 16 17 19 19 15 12 11 9 8 8 9 9 10 11 11 13 18 18 14 11 8 10 10 10 13 14 12 14 19 20 17 18 19 18 17
41 32 21 17 17 15 12 12 18 22 19 21 21 14 8 5 5 8 7 8 6 8 12 13 18 18 15 13 10 15 16 14 16 15 14 15 15 16 16 14 11 12 13 13 14 16 17 17 15 15 18 19 16 13 14 16 17 13 11 11 9 8 8 8 8 9 11 10 10 16 18 15 12 10 13 14 11 15 17 16 13 18 19 16 17 19 17 17
39 29 16 13 14 13 13 14 20 20 19 20 15 7 5 7 7 7 11 11 6 12 15 16 20 21 18 14 11 12 14 15 16 17 15 17 16 16 21 21 17 15 12 12 13 12 13 16 20 18 16 18 18 13 11 12 14 14 12 11 10 9 8 9 9 8 10 10 11 16 16 13 11 11 16 19 14 13 17 18 16 17 20 18 18 18 17 19
36 24 16 17 16 15 14 16 19 18 19 16 9 6 7 8 7 10 11 9 11 16 17 18 21 22 17 12 10 10 10 12 16 17 15 16 15 14 18 22 25 19 11 11 12 11 13 13 18 20 13 16 21 16 13 13 13 14 13 11 11 9 8 8 9 9 9 8 12 15 12 10 10 9 13 19 18 15 13 15 17 16 19 19 19 19 18 19
32 21 19 20 15 12 12 16 17 16 15 11 6 7 8 6 7 9 6 9 13 15 18 20 18 17 15 11 11 12 11 9 14 16 13 13 14 14 15 18 24 21 12 11 10 11 16 12 15 21 15 18 22 18 16 14 12 12 12 12 12 11 9 7 8 10 10 8 9 11 9 9 9 9 12 16 19 20 16 15 16 14 19 20 18 19 18 18
30 21 19 16 9 8 14 17 16 15 11 7 5 5 6 6 7 7 9 14 14 15 18 17 12 11 12 9 9 11 10 10 14 14 11 14 16 16 16 15 20 24 17 12 8 9 14 12 15 21 20 21 21 19 19 15 10 10 12 13 12 12 11 7 8 11 11 9 8 8 9 10 9 10 13 14 15 18 20 19 18 12 19 22 19 19 18 18
27 20 18 15 11 12 16 15 14 13 8 5 5 6 7 9 12 13 14 15 15 16 15 11 8 9 10 8 9 11 14 12 13 14 11 14 14 17 19 15 19 25 22 16 11 9 11 10 14 22 23 21 20 20 22 18 12 9 11 13 11 11 12 7 6 7 9 9 7 9 13 12 10 8 10 14 15 14 17 20 20 15 16 21 20 19 18 18
26 20 16 13 12 14 15 14 13 10 6 4 6 7 7 10 12 13 13 15 15 14 12 8 7 11 12 11 12 16 20 15 11 12 11 12 11 14 17 14 17 24 28 24 14 10 11 10 13 21 23 20 18 18 18 19 19 14 11 13 11 10 10 8 7 7 8 8 6 9 12 10 9 8 10 15 17 14 15 16 19 19 15 19 21 20 19 17
22 15 7 4 10 14 15 15 13 8 5 5 6 5 5 8 10 11 12 14 13 11 11 11 10 11 12 13 14 16 16 14 14 13 9 8 6 2 3 5 7 13 22 24 17 12 11 8 9 18 23 19 15 14 14 15 19 17 12 12 11 9 9 9 8 6 7 7 6 8 8 7 8 9 11 13 14 15 14 13 16 19 14 16 19 20 18 15
16 9 3 10 15 16 18 18 12 6 4 5 5 5 7 8 8 9 11 12 10 8 9 12 13 13 12 15 16 14 13 14 15 13 11 7 4 9 15 14 11 10 9 12 16 15 12 9 9 13 21 20 13 13 16 15 16 15 13 12 11 9 8 9 9 8 7 6 5 6 7 7 7 9 13 14 13 15 14 12 12 16 16 15 18 20 18 15
13 7 6 13 17 18 19 15 7 2 5 6 5 7 8 8 9 10 9 10 9 7 9 12 13 13 12 13 14 12 12 12 14 13 11 10 10 9 12 15 15 14 12 10 10 13 10 9 11 10 13 17 16 17 20 20 18 16 12 12 12 11 10 9 9 9 8 7 6 5 5 3 1 3 9 12 11 13 14 12 10 14 17 16 17 19 19 16
10 6 11 12 13 18 16 8 3 3 4 5 6 8 8 7 9 9 7 8 8 7 8 10 12 12 11 11 11 13 12 11 13 14 11 12 15 12 14 18 18 14 11 8 7 11 11 8 10 10 10 15 19 20 20 21 21 19 15 13 12 12 11 9 8 8 9 9 8 7 6 0 4 3 4 6 7 11 13 11 10 12 15 15 19 19 19 18
6 10 17 12 14 16 12 5 5 5 5 7 9 9 8 8 9 8 7 8 7 7 7 8 11 12 10 10 11 12 13 11 11 13 13 13 15 16 19 19 16 15 10 8 7 6 8 8 9 9 9 11 18 19 19 21 20 17 16 16 13 13 13 10 8 7 8 10 9 7 5 3 5 4 4 5 3 8 10 10 12 12 11 11 15 17 17 18
7 11 13 12 17 14 8 5 6 6 7 9 10 11 9 8 8 8 7 8 6 7 8 8 10 11 10 11 11 11 12 10 9 11 13 12 14 21 24 21 17 13 8 8 8 6 4 7 10 8 7 9 15 15 15 18 17 13 13 17 18 17 18 14 10 8 7 10 11 8 5 5 6 5 5 5 3 4 6 8 11 11 10 11 10 11 16 19
9 9 7 11 16 11 5 6 7 7 8 11 11 11 9 7 8 9 9 8 6 7 9 8 10 12 11 12 12 12 11 10 10 11 12 11 14 19 21 24 22 14 9 12 12 8 6 7 8 8 10 12 13 13 12 13 13 11 15 21 23 22 21 15 9 8 7 8 11 9 5 6 8 6 6 8 7 5 6 9 9 7 8 7 4 7 12 16
7 7 7 8 10 7 4 7 9 7 8 10 9 10 10 8 8 8 8 8 6 8 10 9 11 12 11 11 12 11 10 12 10 9 11 11 11 14 20 28 26 17 17 19 15 9 6 8 9 10 11 9 5 5 8 13 15 15 19 23 25 24 22 16 9 8 7 7 8 8 5 9 11 9 8 9 9 8 9 11 10 6 10 8 7 10 9 8
5 6 7 7 7 7 5 7 9 8 9 10 8 9 11 10 9 7 5 6 7 8 7 8 9 11 11 12 12 10 11 12 9 10 12 12 12 16 23 26 23 21 24 19 13 7 6 8 11 14 15 11 4 2 3 6 12 20 23 23 24 26 24 18 12 10 8 7 8 7 8 10 12 11 8 8 9 6 7 12 11 10 12 9 8 10 12 10
5 5 8 9 7 7 8 10 11 12 13 12 8 9 11 10 9 8 6 7 8 7 5 7 8 10 13 13 12 10 11 11 9 10 10 11 13 16 19 21 20 23 25 18 11 5 4 8 11 15 16 15 14 9 6 8 8 12 22 23 23 25 27 22 16 14 11 7 6 6 5 4 8 10 8 8 9 7 7 10 11 12 10 8 7 10 12 12
6 5 6 10 8 8 12 14 14 14 14 11 8 8 10 10 10 9 8 8 8 5 5 8 10 11 12 13 12 10 10 10 8 7 7 10 13 11 11 15 17 21 24 17 9 6 3 6 9 13 15 15 16 15 10 7 10 11 16 24 23 23 26 24 19 18 15 10 8 8 7 5 5 9 11 11 11 10 8 9 10 11 9 8 6 8 12 13
6 5 5 8 9 10 11 12 12 12 11 10 8 7 7 9 10 9 8 9 10 8 7 10 12 13 14 15 14 12 10 10 10 9 7 8 10 8 7 8 12 18 22 16 10 9 5 5 8 10 11 13 15 16 13 9 10 14 13 18 22 21 24 24 20 19 15 12 12 11 10 8 4 7 11 9 7 9 10 10 10 9 9 9 6 6 10 15
8 10 8 6 7 8 9 9 9 9 8 7 7 6 7 10 11 11 9 9 11 10 9 11 14 13 13 14 15 14 13 12 11 11 9 8 8 7 6 8 12 17 18 15 12 10 7 7 8 8 8 9 10 15 15 10 10 13 11 12 17 19 19 19 18 18 14 13 14 12 10 9 5 7 12 9 7 10 11 7 6 7 8 6 4 1 2 10
10 11 9 5 5 7 7 8 9 9 7 7 8 9 10 12 12 11 9 7 8 10 9 11 13 11 11 14 14 13 14 15 13 11 9 8 9 10 9 12 16 16 13 13 12 9 9 9 7 6 7 7 9 13 12 8 7 9 8 11 14 15 17 18 18 19 17 14 12 8 7 7 6 6 9 10 9 9 8 3 2 7 7 3 2 3 4 1
Wind_Direction
359 359 359 0 1 360 359 357 355 353 350 347 345 344 343 342 339 334 330 326 322 320 319 318 316 314 312 311 311 310 315 308 294 277 246 252 250 246 257 247 252 241 214 204 215 218 203 210 214 212 214 215 221 227 236 230 224 241 221 240 255 256 276 309 350 334 301 285 182 138 125 129 119 117 133 138 126 126 132 121 112 108 120 134 135 139 145 147
357 358 359 359 359 359 358 356 353 349 345 343 343 343 342 341 338 334 330 328 324 321 320 317 315 313 312 312 310 315 320 300 282 269 255 259 256 248 252 240 244 244 208 204 217 215 206 208 207 209 212 216 219 215 232 221 203 233 235 234 236 230 262 281 38 323 296 288 260 141 114 110 123 131 144 144 125 125 129 116 106 100 109 123 133 141 145 149
358 358 358 359 358 358 357 355 353 348 345 344 343 342 340 340 337 334 330 328 325 322 318 314 312 311 311 310 310 322 315 297 279 264 262 263 256 245 241 233 234 233 210 206 215 214 212 211 204 206 212 218 221 214 223 209 195 218 237 250 217 198 271 289 272 275 274 271 266 146 115 97 128 140 149 157 133 130 135 125 122 121 124 130 137 143 146 154
358 357 357 358 358 358 356 354 352 349 347 345 344 341 339 339 337 333 330 327 324 320 316 311 310 308 309 308 308 325 306 290 274 263 266 255 246 238 230 228 224 216 209 211 219 218 215 216 207 206 212 221 225 221 223 208 200 205 219 248 202 141 257 286 281 265 263 258 216 123 144 148 170 153 131 126 122 132 145 133 131 132 134 138 143 147 150 156
357 356 357 357 357 356 354 353 351 349 347 345 343 340 338 338 335 332 329 327 323 319 314 310 308 305 306 301 300 317 294 282 304 33 343 231 229 230 223 223 219 210 207 214 225 222 218 218 210 208 213 226 226 222 226 214 210 226 234 239 134 142 208 286 290 268 265 264 170 109 151 155 176 170 119 110 121 153 157 136 136 139 140 145 147 151 156 158
356 356 357 357 356 355 353 352 350 348 346 344 341 339 338 336 333 330 328 326 323 318 312 308 304 303 300 291 290 284 265 265 59 59 52 130 173 208 217 217 215 210 208 216 226 222 216 217 213 210 212 226 231 226 221 211 212 239 246 209 163 178 187 203 280 281 274 265 155 130 198 187 177 163 129 141 155 174 167 137 139 143 144 148 149 156 162 161
356 357 356 356 355 354 352 351 349 348 345 343 341 339 337 335 332 328 327 326 323 318 312 308 303 301 297 280 263 253 244 259 274 291 53 33 83 128 200 211 210 205 211 217 222 220 213 215 215 211 214 221 231 232 222 213 218 237 251 231 212 188 175 190 194 276 273 256 182 165 191 188 169 154 159 158 147 154 152 132 135 143 145 148 152 160 163 162
356 356 355 355 354 352 351 349 348 347 344 342 340 338 336 334 330 326 326 325 322 317 313 307 302 299 280 242 248 243 234 247 256 250 247 265 248 113 149 194 203 202 212 216 218 218 211 215 216 212 218 221 228 234 225 218 218 227 243 249 246 199 177 196 194 216 247 244 233 214 195 195 166 162 179 159 139 141 137 133 138 144 148 150 157 163 163 166
356 354 354 353 353 351 349 348 347 346 344 342 339 338 335 332 329 325 325 325 320 315 315 306 298 288 216 222 247 253 247 248 249 234 227 232 215 187 159 178 195 200 210 215 218 218 212 215 217 217 224 228 231 236 232 226 221 219 226 236 248 239 199 196 201 216 234 234 234 231 218 222 180 168 171 154 152 137 132 140 141 146 154 155 161 166 164 169
355 353 353 352 352 350 348 347 346 345 344 341 338 336 333 331 327 324 325 322 317 313 313 301 290 246 201 220 236 249 258 265 246 204 205 204 183 184 185 187 189 196 209 215 219 218 216 217 217 222 233 240 240 240 239 233 234 229 223 227 240 253 243 218 213 219 232 231 229 230 222 223 198 188 169 154 159 144 138 146 145 149 159 160 163 166 166 171
354 353 352 351 350 349 347 345 345 344 343 340 337 334 331 330 326 324 324 319 313 311 314 301 269 210 208 225 232 237 244 279 233 177 189 193 179 184 197 200 189 196 209 214 220 220 218 222 220 225 229 239 248 247 247 242 247 246 234 233 238 248 255 250 238 221 226 230 228 236 237 233 213 199 182 160 158 151 149 151 152 155 159 163 166 164 166 173
354 353 351 350 349 348 346 344 344 343 342 339 335 333 331 330 327 325 321 313 309 309 313 301 245 204 217 237 234 235 243 273 258 176 196 198 192 197 202 205 198 200 209 215 223 221 220 224 224 229 224 228 244 247 251 246 247 249 239 238 235 236 241 245 247 235 229 224 224 234 235 231 218 206 198 167 159 157 153 152 157 158 157 163 167 165 169 175
354 352 350 349 347 347 345 343 343 341 340 337 334 331 329 330 327 323 317 307 307 308 309 290 219 207 227 247 239 239 249 264 265 238 226 212 207 210 206 208 208 206 211 219 224 221 221 224 227 234 235 234 237 243 266 260 251 246 236 240 241 233 229 228 229 231 229 219 222 234 230 224 216 206 203 170 161 159 147 149 158 157 156 162 167 168 173 177
351 350 349 348 346 346 344 343 342 340 339 336 333 330 328 330 324 317 311 301 302 307 303 246 196 205 229 253 258 251 248 255 257 248 239 227 220 215 209 207 212 213 214 222 227 224 222 223 230 236 238 242 246 250 257 254 246 242 233 233 243 244 238 225 215 217 221 206 208 229 235 224 222 202 191 170 165 164 151 152 162 163 162 166 169 166 173 181
350 349 348 347 345 344 343 343 341 340 338 334 331 329 327 328 321 311 307 299 299 303 294 199 199 215 252 259 265 263 242 242 246 234 227 227 225 218 208 204 212 216 214 222 227 226 222 220 226 233 234 239 248 254 250 242 228 229 232 224 224 235 247 240 217 205 212 202 196 219 234 219 237 207 182 175 171 171 161 156 166 178 171 168 168 164 173 181
349 348 348 346 345 343 343 343 341 340 337 333 331 329 327 326 315 302 304 294 288 293 220 184 203 216 268 275 264 251 219 224 227 220 220 223 224 218 204 201 209 213 212 218 224 227 221 218 222 228 233 232 235 243 246 247 229 215 225 227 221 222 230 246 229 200 203 206 196 215 232 221 235 200 174 175 172 176 166 157 168 175 169 167 165 163 173 177
349 348 348 346 344 342 342 342 341 339 336 333 331 330 329 327 301 284 298 291 276 262 222 236 227 216 250 278 282 245 207 212 216 212 212 216 223 217 201 200 205 206 209 212 219 227 221 216 218 221 229 229 224 227 230 235 227 210 215 225 229 228 222 231 235 203 196 202 201 212 222 231 227 175 174 181 175 176 158 157 172 170 166 167 162 165 173 177
349 348 348 347 344 341 340 341 341 338 335 333 331 332 333 330 294 275 280 265 248 233 231 251 254 233 241 248 250 242 219 207 207 210 206 205 217 217 201 198 202 198 203 209 211 219 219 213 218 218 219 224 220 215 219 222 221 214 211 218 226 234 233 224 226 205 192 196 204 211 215 232 228 173 176 189 182 170 149 161 184 171 163 164 166 171 176 183
349 349 348 347 344 340 339 340 339 336 333 331 334 337 336 333 299 250 236 242 226 233 250 232 208 230 305 276 240 239 255 212 195 204 202 195 207 216 204 196 203 200 200 204 200 203 211 209 215 221 214 214 216 215 219 222 226 226 218 218 221 225 236 232 225 199 191 201 208 215 214 224 227 188 179 191 190 174 157 165 167 150 159 163 170 175 183 192
350 349 347 346 344 340 338 338 338 333 330 327 328 330 336 356 339 249 269 284 272 270 284 281 233 246 285 295 273 233 245 219 192 201 199 190 197 210 205 194 200 203 202 203 195 195 207 213 213 219 216 213 215 219 226 226 232 240 232 223 222 222 231 238 232 200 194 210 212 214 218 220 221 195 182 189 194 193 182 164 144 155 176 167 173 179 185 193
349 347 346 345 342 339 336 337 335 329 329 322 317 322 6 6 347 328 323 299 282 270 271 274 264 259 263 273 280 264 258 237 204 202 197 189 193 202 196 192 199 201 202 204 197 192 207 221 219 216 217 218 218 219 226 228 230 241 246 237 227 223 224 233 235 208 193 207 211 206 215 224 225 214 197 190 193 202 200 173 150 163 177 171 177 182 182 186
348 346 345 343 342 339 335 336 333 324 325 318 314 341 16 355 335 318 313 296 287 273 262 265 262 263 258 258 266 271 282 257 214 202 193 186 192 199 186 189 204 201 196 202 202 194 208 226 222 215 216 221 223 219 221 228 229 233 244 249 241 228 220 225 236 220 192 201 216 205 214 224 223 229 223 202 197 193 193 192 165 160 169 174 177 179 178 179
348 347 344 342 342 337 334 335 329 320 319 312 327 4 357 339 331 318 307 290 288 278 261 252 246 247 247 248 253 253 256 246 222 202 190 186 193 199 192 191 203 204 195 202 206 198 208 223 218 215 214 217 224 222 218 223 230 230 233 241 244 237 227 218 229 222 200 210 225 214 223 226 216 223 227 220 208 185 186 200 181 159 164 169 173 178 178 177
348 347 345 342 340 337 336 332 323 327 322 311 341 2 347 334 331 327 314 281 279 277 256 242 235 233 232 231 233 233 233 234 231 206 187 190 194 196 202 197 199 209 202 203 211 214 218 217 208 212 215 215 220 222 219 217 222 227 229 232 236 238 240 237 231 220 205 210 216 215 227 229 225 227 225 228 213 184 183 191 185 165 159 162 169 178 183 181
348 347 345 342 339 336 335 329 332 340 324 321 357 354 340 334 332 330 318 284 275 268 247 233 227 230 226 220 216 217 223 226 229 215 191 193 196 191 203 204 200 212 207 205 213 222 225 217 203 207 214 215 217 220 220 217 217 224 227 231 236 238 241 245 245 232 215 209 205 213 230 223 226 236 230 229 218 199 189 183 183 168 155 163 172 176 185 186
347 346 345 342 336 337 338 337 345 331 315 336 0 343 333 334 332 325 310 281 280 262 224 198 187 205 208 206 201 199 218 226 222 223 204 194 198 196 200 206 206 214 210 206 215 227 226 222 212 206 209 213 217 220 218 217 221 223 220 225 234 240 240 239 241 237 230 223 207 208 225 228 221 228 228 230 225 213 205 188 182 167 154 164 171 172 180 184
346 344 344 341 335 339 340 324 328 323 318 351 345 333 331 330 326 320 302 270 273 219 155 157 155 171 186 190 182 183 209 209 202 224 216 191 194 202 204 206 204 211 212 207 216 221 217 221 218 208 207 211 215 218 215 215 222 226 218 217 224 235 242 242 241 240 239 240 226 210 212 223 229 227 226 229 230 221 210 194 180 167 160 163 167 173 179 182
346 343 343 340 335 337 320 288 307 321 339 342 332 328 328 323 317 307 287 283 287 113 114 113 114 167 200 187 181 190 212 175 179 214 216 195 191 200 211 212 209 206 207 212 218 212 209 218 220 212 209 211 214 215 211 214 223 226 225 223 218 223 234 242 245 249 251 249 243 224 212 212 223 224 222 223 227 228 221 217 197 166 159 164 167 171 177 180
344 342 343 338 334 341 321 272 273 306 331 333 327 325 320 313 306 287 255 273 295 45 78 138 127 188 207 184 188 202 217 208 188 192 203 200 193 201 219 216 217 211 209 221 228 218 211 213 219 219 215 212 213 213 210 214 221 218 224 234 225 217 222 231 239 247 254 251 246 240 231 225 222 215 216 216 217 222 216 219 216 171 158 167 169 171 175 178
343 341 343 338 332 341 330 286 271 315 332 328 323 320 313 304 289 256 241 248 287 357 359 133 73 142 192 189 194 207 216 231 237 182 190 199 192 203 221 217 223 224 213 221 230 233 228 210 212 224 223 213 211 213 210 213 218 212 216 232 231 222 216 218 228 235 245 245 237 242 243 240 241 228 229 224 211 223 222 213 209 178 163 168 168 170 176 175
341 341 342 336 328 326 319 306 319 332 330 322 320 316 304 289 263 247 253 283 315 347 2 11 9 357 271 223 201 206 214 231 248 206 189 195 190 198 212 210 220 227 219 220 222 231 236 221 205 215 225 216 207 213 211 208 214 211 207 218 222 221 216 212 215 216 231 237 226 233 237 235 236 231 240 240 209 216 238 234 203 172 168 177 169 170 176 174
339 340 338 328 321 308 286 293 320 324 321 319 317 311 296 279 251 234 260 299 315 357 2 353 348 341 318 297 251 218 210 218 239 228 197 194 194 195 206 207 201 208 218 216 210 215 228 232 217 204 214 217 207 207 209 203 205 206 202 205 209 206 201 206 210 211 226 238 226 225 228 231 238 233 238 246 222 203 218 235 212 170 175 187 171 170 174 171
337 337 326 314 314 296 275 294 316 318 319 319 309 299 289 275 264 255 269 281 327 2 351 343 338 327 314 306 283 241 214 203 221 229 207 197 201 199 207 213 207 207 217 212 207 207 213 227 226 211 201 211 212 202 202 200 193 199 201 197 206 205 191 199 210 218 228 233 228 225 225 229 239 235 232 238 238 219 210 216 213 187 181 179 169 176 175 168
335 333 313 303 292 271 277 309 322 320 316 313 302 289 276 263 271 275 276 298 347 353 346 343 334 318 305 289 282 272 238 205 208 221 212 198 204 206 205 213 214 214 218 213 209 210 211 214 219 217 196 194 210 210 202 197 188 198 205 203 212 210 198 203 208 216 228 228 220 220 223 229 232 227 226 229 232 237 229 217 217 199 176 168 169 180 178 170
335 333 312 304 284 264 297 322 324 320 314 307 297 290 275 265 269 266 293 347 352 350 343 334 320 306 300 284 271 269 258 228 207 213 217 207 209 212 205 209 214 215 214 214 211 208 218 219 209 214 208 192 201 208 205 200 192 196 201 207 215 209 203 214 217 217 225 231 217 212 217 226 237 238 227 224 220 222 227 233 235 202 164 164 171 178 183 173
333 329 316 311 298 310 332 331 324 318 312 301 294 290 273 279 301 319 359 2 348 342 337 328 315 294 282 276 270 261 269 265 227 212 214 216 218 219 214 208 209 215 216 213 215 209 218 223 202 204 211 204 197 197 205 210 196 186 199 211 210 205 213 227 228 220 220 229 222 211 217 217 230 240 223 221 222 215 212 220 235 213 165 167 171 175 187 178
326 319 311 299 296 325 336 331 322 311 302 298 296 299 297 307 331 348 357 351 337 332 330 326 323 307 292 294 302 312 332 314 250 225 210 212 222 220 219 215 206 213 221 223 229 223 221 226 204 199 206 205 192 191 207 218 211 190 195 205 203 206 217 230 240 228 219 230 224 214 222 213 208 222 211 214 221 219 212 207 220 225 181 169 171 173 184 183
311 299 292 283 299 336 342 325 313 299 294 306 288 285 296 305 321 334 337 334 329 325 320 311 311 315 315 316 317 327 339 335 291 262 226 208 216 215 220 226 212 210 216 223 234 231 225 231 209 200 201 194 182 189 206 215 219 219 199 192 199 205 205 209 231 234 222 229 226 220 230 222 205 202 202 210 209 213 223 208 206 222 197 164 169 175 180 186
303 293 295 332 342 348 338 313 297 288 292 305 296 296 304 301 312 324 324 327 332 329 315 309 314 314 312 316 320 323 326 322 316 305 268 229 216 183 6 324 256 225 216 220 232 233 232 244 216 196 192 185 178 190 204 205 212 225 216 194 201 211 203 202 217 231 230 227 221 219 229 235 224 200 191 205 199 196 220 221 203 211 200 163 166 175 180 186
312 299 347 24 6 348 328 303 281 272 293 310 318 316 311 312 318 319 319 327 333 328 315 313 314 310 311 316 314 317 323 315 311 310 301 307 14 46 26 5 339 327 299 256 242 230 229 247 237 198 187 188 189 194 201 198 198 212 217 201 195 202 205 206 211 219 231 236 229 223 225 230 230 201 187 199 197 185 202 225 210 200 197 177 168 172 177 186
310 290 324 0 359 345 325 299 275 296 305 316 325 307 315 328 315 305 321 334 328 318 319 315 307 304 310 314 313 322 328 317 313 306 299 333 5 24 15 359 347 340 326 300 253 226 224 232 232 217 197 198 198 195 198 202 200 200 209 208 197 194 200 207 209 207 217 237 240 242 250 239 230 193 181 186 184 173 187 211 207 199 199 184 172 174 174 181
299 306 321 341 355 342 325 297 304 331 295 319 334 313 322 328 305 304 324 328 321 320 320 310 303 304 306 309 319 328 321 310 313 303 299 338 348 348 359 353 339 328 315 308 278 238 231 235 229 232 233 210 194 190 196 205 208 203 206 213 203 196 202 209 209 197 204 225 233 244 257 355 51 49 131 146 154 161 181 197 188 199 212 193 181 183 175 173
320 317 314 345 15 347 318 296 323 321 307 337 337 318 317 315 307 316 323 316 319 321 313 304 302 305 310 315 316 317 315 308 300 296 308 337 339 330 340 343 332 327 328 338 327 265 237 242 230 238 265 226 191 189 196 204 212 210 205 210 210 203 201 207 215 202 201 211 211 229 236 146 80 76 96 82 113 153 169 188 183 190 215 207 186 181 170 165
324 299 297 350 10 345 311 318 333 323 322 333 329 318 316 311 308 316 323 328 333 317 308 306 305 305 306 309 302 299 308 305 294 313 333 343 329 319 327 339 333 321 334 358 347 330 291 252 229 231 259 221 189 188 195 199 211 217 204 203 213 211 200 201 213 211 209 208 202 213 220 150 98 82 105 114 134 149 155 184 192 183 193 212 201 174 163 159
314 295 294 343 351 337 313 319 319 314 321 327 323 318 319 315 316 327 329 328 325 315 313 308 310 313 307 304 301 293 295 294 297 334 357 350 327 316 324 337 327 309 336 344 320 308 304 275 251 233 226 211 194 194 199 194 200 219 211 199 206 215 207 198 204 210 207 198 199 214 213 145 125 125 151 151 156 191 184 179 194 177 159 194 195 134 148 159
310 308 319 338 338 325 300 305 314 321 323 324 318 314 319 319 318 326 322 316 330 338 330 322 321 321 312 311 310 300 300 301 306 347 358 338 326 318 326 331 323 323 346 330 300 292 292 278 272 256 239 227 190 171 205 204 196 209 216 202 198 211 214 203 198 210 202 183 201 214 174 144 147 158 172 163 166 198 191 170 176 139 93 79 70 85 102 130
312 309 325 340 328 315 314 319 324 327 317 315 313 310 316 317 313 320 319 322 352 358 334 321 319 316 314 320 318 309 307 311 330 358 343 328 332 328 328 328 321 337 350 323 286 295 295 273 268 260 256 249 229 59 342 254 213 206 213 208 196 202 212 211 202 197 188 186 201 191 159 154 154 152 155 160 169 183 171 163 156 113 92 92 92 97 100 99
323 307 327 344 331 311 319 318 316 315 308 306 304 300 306 310 309 319 331 329 344 3 343 315 310 310 313 317 317 313 312 317 340 356 338 331 337 333 332 328 321 341 351 325 298 329 303 280 279 263 256 250 243 254 301 312 285 225 212 210 200 198 205 211 209 197 186 195 199 166 157 161 142 145 160 168 169 160 148 150 124 93 97 112 111 118 118 111
323 302 324 343 331 304 305 306 307 309 306 303 303 299 302 305 307 321 334 323 321 337 326 309 313 317 313 311 310 307 312 320 329 343 339 331 331 330 331 324 321 339 344 326 319 353 317 279 288 274 262 255 252 253 253 278 306 287 232 212 202 198 202 206 212 207 193 196 206 179 175 193 153 156 171 169 162 152 132 119 106 96 100 107 123 149 138 125
324 312 321 329 317 299 298 304 307 307 305 303 306 306 295 290 301 320 325 313 314 324 318 307 313 318 313 311 307 299 306 314 306 310 320 315 317 326 326 315 316 327 330 328 337 351 341 294 298 294 276 262 257 256 248 242 271 288 265 221 205 200 200 200 208 213 199 192 207 193 172 182 167 140 150 147 130 115 108 122 131 113 99 110 141 167 145 139
301 303 311 317 307 297 299 307 308 303 300 300 303 302 287 289 309 320 315 311 313 313 309 304 308 310 305 303 302 304 314 315 295 290 297 293 296 304 297 295 305 313 319 327 332 338 342 325 311 303 276 258 260 253 237 220 245 274 286 253 222 207 201 196 200 211 204 187 197 199 178 180 180 137 136 138 121 93 87 113 130 87 80 117 143 57 122 145
305 306 312 315 295 288 295 305 308 303 298 298 307 310 300 299 308 307 302 307 302 292 291 297 302 305 300 302 308 312 312 309 300 295 293 281 274 274 271 278 289 296 304 314 318 325 336 331 319 306 278 253 261 261 238 213 240 261 266 251 232 215 208 200 195 206 209 196 192 195 175 173 197 186 157 150 140 108 96 119 98 67 67 70 50 12 346 72
Height
807 805 803 801 799 797 795 793 791 788 786 784 782 780 778 776 774 772 770 768 767 764 763 762 761 760 759 758 756 755 753 751 748 748 742 727 726 730 731 732 732 733 736 738 739 738 738 739 738 737 738 737 738 737 733 727 726 734 750 768 770 770 764 750 751 749 746 740 723 715 715 721 728 722 714 714 722 727 729 730 729 726 726 733 739 746 752 757
807 805 803 801 799 796 794 792 790 787 785 782 780 779 776 775 772 770 769 767 765 763 762 760 759 759 757 757 755 754 753 750 747 741 728 720 725 729 728 730 731 732 734 736 736 734 736 737 735 735 737 739 737 734 735 726 726 740 749 759 761 759 752 740 744 744 742 739 723 715 715 717 723 721 716 726 733 732 738 738 735 737 737 738 742 747 753 757
807 805 803 800 798 796 794 791 789 786 784 782 779 777 775 772 770 768 767 765 763 762 760 758 757 756 756 756 754 754 752 749 744 729 716 716 721 722 725 728 728 730 732 733 733 731 732 733 731 733 737 740 735 731 735 727 727 737 743 755 750 743 743 737 739 741 740 740 731 721 716 719 719 713 720 730 734 738 744 743 742 747 747 747 748 748 754 757
807 805 802 800 797 795 792 790 788 785 782 781 778 775 773 770 768 766 764 763 761 760 758 757 756 755 755 754 754 754 752 750 735 715 709 712 713 716 720 723 726 729 730 730 731 729 729 728 728 730 737 742 734 729 733 728 728 732 738 748 738 734 744 739 736 737 736 732 727 724 721 724 717 710 722 729 737 745 742 738 741 745 746 749 750 750 753 757
807 804 802 799 797 794 791 789 786 783 781 778 776 774 771 769 766 764 762 761 759 758 756 755 753 753 753 753 754 752 754 751 723 706 709 709 709 713 715 719 723 727 728 730 729 727 726 724 726 730 737 741 735 732 732 721 722 731 732 731 729 735 745 738 732 732 730 721 717 725 726 723 716 713 721 729 742 746 734 731 735 738 741 744 747 750 752 755
806 803 801 799 796 794 790 788 785 782 779 776 774 771 769 767 764 762 760 758 757 755 753 752 751 751 751 751 752 752 755 743 714 708 712 708 710 712 714 718 721 725 727 729 726 724 724 723 727 735 737 739 737 733 729 717 718 735 732 724 726 731 738 736 731 729 727 721 719 725 722 715 718 720 719 724 735 731 720 721 728 732 735 739 743 747 750 753
806 803 801 798 795 792 789 786 783 780 777 774 772 769 767 764 762 761 758 756 754 752 751 750 749 749 749 751 751 751 751 732 709 711 713 710 714 712 715 718 720 725 726 726 724 722 723 725 729 732 736 739 736 729 724 717 718 732 734 724 721 722 728 729 725 728 726 720 715 714 714 714 722 725 719 720 723 718 714 716 723 730 732 738 743 746 749 752
805 803 800 797 794 791 788 785 782 779 776 772 769 767 765 762 760 758 756 754 751 750 749 748 748 748 749 751 749 748 742 722 708 713 712 712 714 713 717 718 720 724 723 723 720 719 721 726 728 727 736 737 730 725 719 720 723 728 732 724 717 718 722 721 722 728 723 714 708 708 714 714 713 717 718 719 717 712 713 717 722 729 733 739 745 746 749 752
805 802 799 796 793 790 787 784 781 777 774 771 768 765 762 760 758 756 754 752 750 749 747 747 747 747 749 749 747 744 727 709 707 711 711 712 713 713 716 717 720 721 721 720 716 716 719 723 724 721 730 729 723 722 715 723 728 721 721 720 716 716 714 716 721 722 717 709 707 712 717 712 703 708 718 716 712 710 712 719 724 729 735 740 744 746 748 751
804 801 798 795 792 789 785 782 779 775 772 769 765 763 761 758 756 754 752 750 749 747 746 746 746 746 749 746 747 741 715 702 705 706 708 711 711 713 714 715 717 718 718 717 713 713 714 717 716 712 720 722 719 719 713 719 719 707 710 714 714 714 709 709 713 713 711 708 707 714 719 711 700 710 724 714 705 708 715 723 725 730 737 738 740 743 745 749
804 800 798 794 791 788 784 781 777 774 771 767 764 761 759 756 754 752 750 749 747 746 745 745 745 746 747 745 744 731 707 702 703 703 708 709 710 711 712 714 715 716 716 714 712 710 710 711 707 711 721 722 719 718 712 707 705 702 706 714 714 713 711 707 709 708 710 710 705 708 715 711 704 714 721 709 702 707 716 725 726 731 736 737 739 740 743 746
803 800 796 793 790 786 783 779 775 772 769 765 763 759 757 755 753 751 749 747 746 745 744 743 745 744 745 744 734 716 703 704 703 703 706 706 708 709 709 712 712 713 714 712 711 707 708 707 705 716 720 717 722 724 713 699 700 703 706 720 721 715 717 712 709 707 708 712 701 703 723 723 715 716 708 700 701 705 714 724 727 731 734 737 739 740 744 745
803 800 796 792 789 785 782 778 774 770 767 764 760 757 755 753 751 749 747 746 745 744 742 742 743 743 746 737 717 707 705 703 704 704 704 704 706 706 708 710 710 711 711 710 709 706 708 706 707 713 711 714 722 716 704 697 703 709 709 720 724 723 723 711 706 707 707 709 696 706 740 737 717 710 699 695 699 706 718 725 728 731 733 736 738 741 745 744
803 800 796 792 788 785 781 777 773 768 765 762 758 755 753 751 750 747 746 745 744 743 742 741 742 744 744 727 707 705 705 703 704 703 703 703 702 703 705 707 708 709 709 708 707 706 706 705 705 710 708 711 712 704 705 708 710 715 718 722 727 736 729 704 699 706 710 705 692 710 743 735 713 703 695 693 698 708 721 728 730 731 732 735 736 740 744 743
803 800 796 792 788 784 781 776 772 767 764 760 756 753 750 750 747 745 745 744 743 742 740 741 743 742 739 722 703 700 701 702 702 699 701 701 700 700 700 703 706 705 707 707 706 705 704 704 708 715 713 708 709 715 721 719 714 717 730 734 730 735 730 705 691 697 708 702 692 713 737 728 710 698 691 691 697 706 717 726 730 729 729 732 734 738 743 742
803 799 795 792 787 784 780 776 771 767 762 758 754 751 748 747 745 744 744 742 742 742 741 742 739 739 737 718 699 695 696 697 696 696 699 698 697 696 696 700 702 703 705 704 704 702 700 703 708 712 714 713 718 726 731 730 724 718 729 738 730 729 730 715 692 683 695 700 697 710 727 724 708 694 689 690 696 704 713 722 725 726 727 730 734 738 741 742
803 799 795 792 787 783 779 775 771 766 762 757 752 748 745 744 742 741 742 741 742 740 741 739 733 737 729 706 697 695 690 691 693 693 695 695 695 694 694 697 699 700 701 702 703 702 701 705 710 712 715 718 719 726 740 747 737 723 724 730 725 721 723 720 703 682 684 699 705 708 716 718 705 694 693 691 694 703 713 720 723 724 727 731 734 737 741 743
803 799 795 791 787 782 779 775 771 766 762 757 751 746 743 741 739 739 740 741 740 741 741 735 735 739 720 700 700 693 683 685 689 689 691 693 693 692 692 694 696 698 703 706 705 705 707 707 712 720 721 721 719 724 740 742 731 726 725 727 725 718 715 715 706 686 682 697 708 711 716 713 701 694 696 694 693 703 714 718 720 723 728 733 735 737 741 743
802 799 795 791 787 782 778 774 770 766 762 757 751 745 741 739 738 738 739 738 738 740 736 729 731 727 707 695 693 685 680 681 684 687 687 689 691 690 689 692 695 700 710 716 712 708 710 714 719 725 725 722 718 717 724 723 717 717 715 717 721 719 713 703 692 680 681 698 707 709 715 711 702 697 698 696 693 702 714 717 722 727 729 734 736 738 741 743
801 798 795 790 786 781 777 774 770 766 762 758 752 746 743 743 741 738 737 736 735 731 724 720 720 713 700 693 685 682 682 680 682 684 683 686 688 689 690 692 698 704 710 716 715 706 708 723 726 722 719 714 712 710 709 710 709 708 706 708 710 712 711 696 685 676 675 697 707 702 708 707 700 697 695 696 696 701 710 717 728 733 730 733 736 738 741 742
801 797 794 790 786 781 776 773 769 766 762 758 754 750 749 752 753 748 741 734 728 725 721 713 712 709 701 693 683 682 685 684 682 680 682 684 685 693 695 695 705 711 708 708 709 705 710 724 719 709 709 705 705 705 706 708 708 708 707 706 704 705 704 690 682 675 671 694 704 696 704 706 697 694 689 690 698 702 703 709 725 733 730 731 734 736 738 739
801 797 793 790 786 780 775 772 769 765 762 759 755 753 753 756 757 754 748 736 720 716 717 710 707 704 695 691 685 684 691 691 686 679 678 681 685 694 695 696 709 710 705 705 709 714 719 717 706 700 700 700 701 700 704 707 707 710 709 708 706 698 695 690 681 672 670 691 702 695 704 706 695 690 685 684 691 695 694 696 709 721 726 728 730 732 734 737
802 796 793 789 785 781 774 771 768 763 762 759 755 754 756 756 755 752 750 742 721 707 707 703 700 698 692 690 684 685 694 693 688 680 673 678 685 689 691 698 706 705 704 708 709 717 720 707 696 694 695 700 704 700 702 707 707 709 708 712 710 694 695 700 688 674 671 682 692 694 701 701 692 689 684 679 678 682 686 687 692 703 714 719 722 725 729 734
801 797 794 788 785 781 773 771 767 763 762 758 756 757 757 756 754 752 748 741 723 701 692 687 685 686 683 681 679 683 691 686 683 677 668 675 683 684 688 693 700 703 701 702 703 706 706 694 686 691 693 697 704 701 700 708 711 707 703 707 707 695 692 693 684 675 675 680 682 692 710 707 695 695 690 677 673 677 682 686 689 694 701 710 715 719 723 727
800 797 793 788 785 780 774 770 766 765 762 757 758 758 758 756 753 753 749 742 723 692 676 675 675 673 668 671 675 676 683 681 675 669 662 667 677 683 687 685 692 702 698 696 701 701 694 682 679 690 694 693 700 702 698 702 710 709 701 696 696 692 690 687 681 681 693 699 685 691 727 727 701 698 696 683 679 680 681 685 691 694 698 705 712 716 719 721
799 796 793 789 785 780 775 769 767 768 761 758 760 759 759 756 754 754 750 748 726 683 666 668 667 664 660 665 668 671 687 683 666 660 657 662 667 674 687 684 684 693 691 690 695 694 686 676 675 685 692 692 698 699 692 692 706 711 696 687 688 688 690 689 687 691 706 707 683 681 721 733 710 700 694 685 686 684 682 685 687 691 698 702 706 711 714 717
799 795 792 789 785 783 779 773 772 769 761 762 762 760 759 756 755 753 752 753 717 668 662 666 661 659 657 658 659 673 690 676 662 661 653 658 662 665 683 686 683 686 679 685 697 689 679 678 677 679 686 692 696 696 687 685 702 705 684 679 688 690 692 691 689 695 696 691 682 675 696 722 720 704 688 683 689 687 683 685 684 687 694 698 701 705 708 712
799 795 792 789 785 785 783 779 775 768 765 766 762 762 760 756 757 752 760 759 700 652 660 665 659 658 654 652 655 667 669 658 668 668 647 652 660 664 681 680 679 683 673 682 699 683 671 679 679 676 684 690 688 685 679 680 695 692 676 675 682 687 692 690 692 697 689 692 703 687 683 714 724 701 684 683 690 692 687 684 681 683 689 692 696 701 703 706
798 795 792 789 785 783 782 780 776 771 769 767 764 763 758 756 756 751 767 757 689 652 663 662 661 662 656 658 660 663 659 653 663 659 646 652 655 659 675 672 671 678 671 675 686 676 666 668 668 670 678 681 677 673 670 678 686 679 672 675 676 680 686 691 697 700 698 709 719 698 682 706 718 697 687 689 691 692 685 678 675 677 683 688 690 695 699 701
796 793 791 788 784 782 781 778 775 773 770 767 766 762 757 757 755 761 774 744 686 666 665 662 668 668 664 669 669 667 665 659 652 648 652 656 654 658 664 662 665 672 672 671 674 670 657 652 656 661 665 665 665 666 664 670 673 671 676 683 684 684 685 692 696 700 717 724 716 699 684 697 717 704 687 683 679 677 674 671 670 669 677 684 687 691 694 697
795 792 790 788 785 784 782 776 772 772 770 768 765 760 757 755 755 768 761 714 684 682 673 674 681 677 674 676 674 670 669 666 654 652 660 659 661 668 668 669 671 675 679 676 673 670 661 657 656 654 651 651 660 666 662 662 664 671 682 690 699 702 697 702 704 708 730 730 709 696 687 698 721 710 684 670 662 662 667 667 666 667 674 679 682 687 688 692
794 791 789 787 785 784 782 777 773 772 770 768 764 758 759 760 759 762 740 704 700 703 693 695 696 689 686 680 674 668 667 671 661 654 659 662 666 670 671 673 673 683 689 680 677 676 669 662 653 650 647 646 660 673 669 665 666 675 685 696 713 720 719 728 728 722 728 720 700 692 693 703 709 694 676 666 657 657 661 660 658 663 671 673 675 681 683 686
793 790 788 786 784 783 781 777 774 772 769 767 764 759 762 771 765 748 729 714 714 709 703 706 702 695 693 686 677 665 660 666 662 655 654 658 666 667 667 664 660 675 683 676 678 681 677 667 652 652 651 643 653 672 679 675 673 680 686 697 714 721 734 750 742 730 727 715 696 687 694 706 701 681 668 662 654 649 648 650 649 652 661 666 669 674 678 682
792 789 786 784 782 780 778 777 774 771 769 765 763 761 766 774 762 739 729 722 715 711 712 713 707 700 691 684 677 665 661 661 656 655 654 656 666 668 666 663 655 660 668 672 674 675 684 681 658 651 650 644 648 656 663 666 671 678 674 684 700 703 722 740 734 731 728 714 699 693 698 706 699 678 657 650 648 643 641 641 641 642 647 655 663 670 676 680
791 788 785 781 779 778 776 776 773 771 769 763 763 767 770 767 750 734 732 730 725 725 724 717 711 706 695 683 674 663 664 663 653 654 656 657 664 663 661 662 656 654 664 673 668 661 676 672 646 638 637 637 648 646 642 656 673 673 664 678 690 683 693 710 709 707 709 709 704 696 695 688 674 659 643 641 643 640 642 641 637 640 643 651 663 669 672 676
791 788 785 780 777 776 775 775 772 770 767 764 768 771 765 754 742 736 740 740 738 736 733 724 714 710 700 684 674 665 662 662 655 656 659 656 657 656 654 652 650 650 655 663 661 656 669 663 637 634 635 630 639 642 637 650 667 669 670 679 673 662 674 696 701 687 691 710 703 687 688 679 669 662 644 640 644 640 643 644 640 639 641 651 661 665 668 671
791 788 785 780 777 776 775 774 772 770 765 765 773 773 762 752 746 747 749 748 744 739 739 738 725 716 711 698 688 681 678 676 661 652 655 658 655 650 647 644 641 644 644 648 652 645 653 659 635 630 642 631 625 637 640 636 644 662 675 670 659 661 669 684 703 698 699 714 699 680 685 682 684 682 654 644 652 646 642 643 642 639 639 649 657 661 664 664
793 788 782 778 776 774 774 773 771 768 763 767 776 773 764 759 752 752 754 750 747 743 743 744 732 723 723 720 711 701 701 702 682 659 651 653 652 644 643 644 636 635 635 639 648 637 638 656 641 622 636 632 622 641 655 640 632 644 654 650 658 682 688 687 702 707 708 715 702 684 679 673 675 675 658 652 655 650 645 641 643 642 639 646 655 658 660 658
791 785 777 774 775 773 773 773 768 765 765 769 774 768 761 759 753 752 754 751 750 751 749 745 737 732 731 730 726 716 715 716 705 688 667 652 652 647 646 650 643 635 632 634 644 636 630 651 648 620 619 630 632 647 663 656 642 638 641 643 652 670 680 683 689 692 699 709 705 695 689 677 659 648 649 651 646 646 648 643 642 641 636 642 651 654 656 657
792 786 776 771 774 773 771 769 762 761 764 764 767 765 759 757 755 751 751 751 752 754 754 750 744 742 738 735 732 725 724 721 713 707 687 662 661 662 656 658 656 648 641 638 639 635 633 648 651 627 616 630 642 643 648 653 651 650 653 656 658 660 664 672 676 675 684 698 701 700 698 677 642 625 633 640 636 638 643 641 639 637 633 637 644 649 653 654
794 788 775 769 773 772 769 765 758 758 762 761 763 763 759 758 757 752 749 751 752 751 752 752 750 746 743 742 739 733 733 730 721 713 696 677 675 675 666 662 662 657 652 647 641 636 637 643 646 638 629 632 635 627 628 636 640 647 654 652 655 660 666 681 688 675 671 684 688 692 695 671 630 614 620 625 627 629 633 636 635 633 631 633 637 643 646 649
793 785 772 768 772 772 770 765 756 756 761 760 761 761 758 758 757 753 751 752 753 751 751 752 751 747 746 745 745 744 741 736 731 721 705 696 695 685 671 666 665 659 655 653 644 630 628 635 642 643 632 621 619 616 620 627 626 633 643 641 643 651 660 681 693 680 672 678 673 676 689 670 631 614 615 618 620 623 626 630 632 632 630 628 631 635 638 643
794 787 773 767 771 772 772 768 760 759 760 758 759 759 758 758 757 754 754 753 754 754 754 753 750 748 747 746 747 749 746 738 732 723 710 707 705 691 676 671 669 662 659 660 652 635 632 640 647 650 637 616 610 613 616 620 625 633 638 634 637 644 648 659 666 665 672 678 674 683 694 673 637 619 618 619 619 621 624 626 629 633 630 625 626 629 634 640
800 791 776 770 772 773 773 771 769 769 765 762 764 762 757 756 756 755 755 755 755 756 756 755 752 749 748 747 747 747 747 742 731 723 721 720 713 697 683 677 675 668 667 671 667 659 657 652 649 660 663 644 632 635 634 630 631 634 633 632 634 634 638 648 650 655 670 673 670 685 694 671 642 627 625 626 625 625 627 625 625 629 630 627 625 625 630 636
806 793 777 772 774 775 774 771 769 771 770 768 769 766 761 759 756 755 755 756 754 755 757 755 752 750 747 746 746 743 744 745 737 732 735 734 724 706 692 687 682 672 669 672 669 668 672 663 653 662 671 661 652 651 647 638 636 634 628 629 634 632 636 647 654 664 676 671 664 675 680 665 647 639 635 633 633 634 632 628 625 626 629 629 626 626 630 632
810 798 786 781 779 776 774 769 765 769 772 774 774 768 765 764 760 755 755 756 754 754 758 757 753 753 751 749 750 747 743 743 741 742 746 743 732 716 702 696 689 676 673 674 667 664 669 665 656 657 655 648 645 641 629 626 635 640 632 628 632 633 631 638 654 667 668 667 668 665 662 664 659 649 643 638 636 637 633 630 631 631 632 633 630 631 633 634
812 803 796 794 790 781 775 772 770 773 774 776 776 771 767 766 763 758 755 755 755 757 760 760 758 758 755 752 753 752 747 743 745 751 755 748 738 726 712 703 696 685 678 673 663 661 669 666 655 650 646 639 635 632 625 624 630 635 632 628 629 632 632 636 651 656 652 666 677 658 649 663 662 648 645 641 636 635 631 630 634 634 635 636 635 634 636 638
817 809 800 801 802 795 788 784 780 778 776 775 775 772 769 767 765 761 757 755 758 762 763 763 760 757 755 754 754 754 751 749 750 756 758 752 745 737 724 711 700 691 687 677 662 660 674 672 655 647 644 637 631 628 627 630 630 626 626 625 625 629 634 638 643 642 643 662 669 651 647 658 652 644 644 638 633 633 629 626 628 631 634 635 636 637 639 643
822 816 807 806 808 804 797 791 784 782 779 775 774 773 771 770 767 763 760 760 762 763 764 764 760 755 753 752 752 755 755 754 755 757 758 757 752 747 741 727 708 697 696 687 667 662 674 673 656 648 646 639 634 630 627 631 635 631 625 620 620 625 630 634 638 635 637 650 650 644 651 654 643 637 636 629 626 626 625 625 628 633 637 638 639 639 640 644
826 823 819 816 813 806 799 792 788 786 781 777 776 777 776 775 770 763 761 763 764 763 762 763 760 756 754 751 751 752 752 752 754 754 755 757 755 751 750 741 724 712 706 695 678 670 676 673 658 653 655 649 640 635 632 634 639 638 628 616 614 621 626 632 637 633 636 647 644 642 654 654 636 627 626 624 623 625 630 633 635 637 639 640 641 640 639 643
828 826 825 824 818 808 800 795 791 789 784 778 778 778 777 773 767 764 763 761 763 764 763 762 759 755 754 752 751 751 750 749 749 746 746 750 752 751 750 743 736 729 716 705 694 683 682 680 666 663 670 662 646 641 636 632 637 642 638 627 620 622 626 629 632 631 635 645 648 649 659 656 636 625 628 628 627 633 639 639 638 640 641 642 644 642 640 642
826 824 823 826 821 809 803 800 795 790 786 781 777 776 774 769 763 764 767 765 762 762 759 758 759 758 757 754 752 751 750 748 744 740 741 743 744 745 745 741 738 735 725 716 707 694 691 692 680 675 679 667 650 644 636 637 655 661 649 635 625 620 621 623 626 628 626 633 647 654 654 646 633 628 634 636 635 641 645 643 642 645 646 646 646 645 644 642